7 * 24
多渠道服务支持
STARLINK-34879是美国太空探索技术公司(SpaceX)于2025年8月28日发射的星链卫星,属于Starlink低轨卫星星座,主要为全球提供高速互联网接入服务,尤其覆盖偏远地区与网络基础设施薄弱区域,进一步完善了星链星座的全球覆盖能力与服务稳定性。
美国
(US)
| 数据来源 | 国际轨道数据 |
| 星历时间: | 2026-09-12T02:28:41+0800 1天前 查看轨道信息 |
| 半长轴: | 6840.837km |
| 偏心率: | 0.0001056 |
| 轨道倾角: | 53.161° |
| 近地点辐角 | 66.889° |
| 升交点赤经 | 22.523° |
| 平近点角 | 293.222° |
| 近地点: | 461.977km |
| 远地点: | 463.423km |
| 周期: | 93.848分钟 |
| 每日圈数: | 15.344012 |